Weather History for KHRT - February, 2014

Change the Weather History Date:

Tuesday, February 11, 2014

  Actual Average Record
Temperature  
Mean Temperature 52 °F -  
Max Temperature 57 °F 62 °F 73 °F (2000)
Min Temperature 48 °F 44 °F 28 °F (2011)
Degree Days  
Heating Degree Days 12    
Growing Degree Days 2 (Base 50)    
Moisture  
Dew Point 49 °F    
Average Humidity 85    
Maximum Humidity 88    
Minimum Humidity 81    
Precipitation  
Precipitation 0.80 in - - ()
Sea Level Pressure  
Sea Level Pressure 30.04 in    
Wind  
Wind Speed 7 mph (NNE)    
Max Wind Speed 16 mph    
Max Gust Speed 22 mph    
Visibility 6 miles    
Events Rain    
Averages and records for this station are not official NWS values.
T = Trace of Precipitation, MM = Missing Value Source: NWS Daily Summary

Daily Weather History Graph

Daily Weather History Graph

Search for Another Location

Airport or City:

Trip Planner

Search our weather history database for the weather conditions in past years. The results will help you decide how hot, cold, wet, or windy it might be!

Date:

Astronomy

Feb. 11, 2014 Rise Set
Actual Time 6:30 AM CST 5:31 PM CST
Civil Twilight 6:05 AM CST 5:56 PM CST
Nautical Twilight 5:37 AM CST 6:24 PM CST
Astronomical Twilight 5:09 AM CST 6:53 PM CST
Moon 2:57 PM CST (2/11) 4:01 AM CST (2/11)
Length of Visible Light 11h 50m
Length of Day
11h 01m
Waxing Gibbous, 91% of the Moon is Illuminated
Feb 11
Waxing Gibbous
Feb 14
Full
Feb 22
Last Quarter
Mar 1
New
Mar 8
First Quarter

Hourly Weather History & Observations

Time (CST) Temp. Dew Point Humidity Pressure Visibility Wind Dir Wind Speed Gust Speed Precip Events Conditions
12:03 AM 57.2 °F 53.6 °F 88% 30.05 in 10.0 mi NNW 4.6 mph - N/A   Scattered Clouds
12:33 AM 57.2 °F 51.8 °F 82% 30.05 in 10.0 mi NNW 6.9 mph - N/A   Overcast
12:38 AM 57.2 °F 51.8 °F 82% 30.05 in 10.0 mi NNW 5.8 mph - N/A   Overcast
12:49 AM 57.2 °F 51.8 °F 82% 30.05 in 10.0 mi North 5.8 mph - N/A   Overcast
12:58 AM 56.5 °F 52.0 °F 85% 30.06 in 10.0 mi North 4.6 mph - N/A   Overcast
1:58 AM 55.8 °F 51.6 °F 86% 30.05 in 10.0 mi North 3.5 mph - N/A   Overcast
2:58 AM 55.8 °F 51.6 °F 86% 30.04 in 10.0 mi North 4.6 mph - N/A   Overcast
3:28 AM 55.4 °F 51.8 °F 88% 30.02 in 10.0 mi NNE 6.9 mph - N/A   Overcast
3:48 AM 55.4 °F 50.0 °F 82% 30.02 in 10.0 mi NNE 6.9 mph - N/A   Overcast
3:58 AM 55.0 °F 50.7 °F 85% 30.03 in 10.0 mi NNE 4.6 mph - N/A   Overcast
4:08 AM 55.4 °F 50.0 °F 82% 30.02 in 10.0 mi NNE 4.6 mph - N/A   Overcast
4:18 AM 55.4 °F 50.0 °F 82% 30.03 in 10.0 mi North 4.6 mph - N/A   Overcast
4:58 AM 55.0 °F 50.4 °F 84% 30.04 in 10.0 mi North 5.8 mph - N/A   Overcast
5:08 AM 55.4 °F 50.0 °F 82% 30.02 in 9.0 mi NNE 5.8 mph - N/A   Overcast
5:33 AM 53.6 °F 50.0 °F 88% 30.04 in 5.0 mi North 9.2 mph - N/A   Haze
5:43 AM 53.6 °F 48.2 °F 82% 30.06 in 5.0 mi North 11.5 mph - N/A   Haze
5:58 AM 53.1 °F 48.6 °F 85% 30.07 in 5.0 mi North 11.5 mph - N/A   Haze
6:03 AM 53.6 °F 48.2 °F 82% 30.06 in 4.0 mi North 8.1 mph - N/A   Haze
6:13 AM 51.8 °F 48.2 °F 88% 30.06 in 4.0 mi North 9.2 mph - N/A   Haze
6:28 AM 51.8 °F 48.2 °F 88% 30.06 in 0.8 mi NNE 4.6 mph - N/A   Overcast
6:48 AM 51.8 °F 48.2 °F 88% 30.07 in 1.0 mi North 6.9 mph - N/A   Overcast
6:55 AM 51.8 °F 48.2 °F 88% 30.07 in 2.5 mi NNE 8.1 mph - N/A   Overcast
7:55 AM 51.8 °F 48.2 °F 88% 30.12 in 2.5 mi North 12.7 mph - N/A   Overcast
8:16 AM 51.8 °F 48.2 °F 88% 30.11 in 7.0 mi North 11.5 mph - N/A Rain Light Rain
8:55 AM 51.8 °F 48.2 °F 88% 30.10 in 2.5 mi NE 8.1 mph - 0.02 in Rain Light Rain
9:15 AM 53.6 °F 48.2 °F 82% 30.09 in 5.0 mi NE 8.1 mph - N/A Rain Light Rain
9:41 AM 53.6 °F 50.0 °F 88% 30.10 in 7.0 mi NNE 8.1 mph - N/A   Overcast
9:55 AM 53.6 °F 50.0 °F 88% 30.12 in 7.0 mi NE 8.1 mph - 0.00 in   Overcast
10:56 AM 53.6 °F 50.0 °F 88% 30.11 in 7.0 mi NNE 5.8 mph - N/A   Overcast
11:13 AM 53.6 °F 50.0 °F 88% 30.10 in 10.0 mi NNE 6.9 mph - N/A   Light Drizzle
11:47 AM 53.6 °F 48.2 °F 82% 30.08 in 10.0 mi NNE 8.1 mph - N/A   Light Drizzle
11:58 AM 54.3 °F 49.1 °F 83% 30.08 in 10.0 mi NE 9.2 mph - 0.00 in   Light Drizzle
11:59 AM 55.4 °F 50.0 °F 82% 30.07 in 10.0 mi NE 9.2 mph - N/A   Overcast
12:58 PM 55.6 °F 49.8 °F 81% 30.06 in 10.0 mi East 5.8 mph - 0.00 in   Overcast
1:18 PM 55.4 °F 50.0 °F 82% 30.04 in 10.0 mi NE 5.8 mph - N/A Rain Light Rain
1:58 PM 55.9 °F 50.9 °F 83% 30.04 in 6.0 mi ENE 6.9 mph - 0.01 in Rain Light Rain
2:04 PM 57.2 °F 51.8 °F 82% 30.02 in 9.0 mi NE 9.2 mph - N/A   Overcast
2:09 PM 57.2 °F 51.8 °F 82% 30.02 in 10.0 mi NNE 6.9 mph - N/A   Light Drizzle
2:25 PM 55.4 °F 50.0 °F 82% 30.02 in 10.0 mi NE 6.9 mph - N/A   Overcast
2:45 PM 55.4 °F 51.8 °F 88% 30.03 in 10.0 mi NNE 6.9 mph - N/A Rain Light Rain
2:58 PM 55.4 °F 50.0 °F 82% 30.03 in 6.0 mi NNE 8.1 mph - 0.01 in Rain Light Rain
3:27 PM 55.4 °F 50.0 °F 82% 30.03 in 10.0 mi NNE 5.8 mph - N/A   Overcast
3:31 PM 55.4 °F 50.0 °F 82% 30.03 in 10.0 mi NNE 8.1 mph - N/A   Light Drizzle
3:36 PM 55.4 °F 50.0 °F 82% 30.02 in 0.5 mi NNE 10.4 mph - N/A Rain Heavy Rain
3:41 PM 55.4 °F 50.0 °F 82% 30.03 in 1.8 mi NNE 10.4 mph - N/A Rain Heavy Rain
3:42 PM 55.4 °F 50.0 °F 82% 30.03 in 1.8 mi NNE 9.2 mph - N/A Rain Heavy Rain
3:46 PM 55.4 °F 50.0 °F 82% 30.03 in 2.0 mi NNE 6.9 mph - N/A Rain Rain
3:51 PM 55.4 °F 50.0 °F 82% 30.03 in 4.0 mi NNE 8.1 mph - N/A Rain Light Rain
3:58 PM 54.3 °F 50.0 °F 85% 30.04 in 5.0 mi NNE 8.1 mph - 0.11 in Rain Light Rain
4:03 PM 53.6 °F 50.0 °F 88% 30.03 in 2.5 mi NNE 8.1 mph - N/A Rain Heavy Rain
4:23 PM 53.6 °F 50.0 °F 88% 30.02 in 3.0 mi NE 10.4 mph - N/A Rain Rain
4:33 PM 53.6 °F 50.0 °F 88% 30.02 in 5.0 mi NNE 9.2 mph - N/A Rain Light Rain
4:38 PM 53.6 °F 48.2 °F 82% 30.03 in 7.0 mi North 11.5 mph - N/A Rain Light Rain
4:58 PM 52.9 °F 48.6 °F 85% 30.04 in 6.0 mi NNE 8.1 mph - 0.14 in Rain Light Rain
5:28 PM 51.8 °F 48.2 °F 88% 30.04 in 2.0 mi NE 10.4 mph - N/A Rain Heavy Rain
5:33 PM 51.8 °F 48.2 °F 88% 30.03 in 1.5 mi NE 9.2 mph - N/A Rain Heavy Rain
5:43 PM 51.8 °F 48.2 °F 88% 30.04 in 2.5 mi NNE 8.1 mph - N/A Rain Heavy Rain
5:48 PM 51.8 °F 48.2 °F 88% 30.04 in 4.0 mi NNE 10.4 mph - N/A Rain Heavy Rain
5:58 PM 51.8 °F 48.2 °F 88% 30.06 in 6.0 mi NNE 11.5 mph - 0.16 in Rain Rain
6:08 PM 51.8 °F 48.2 °F 88% 30.04 in 7.0 mi NNE 8.1 mph - N/A Rain Light Rain
6:18 PM 51.8 °F 48.2 °F 88% 30.04 in 5.0 mi NE 8.1 mph - N/A Rain Rain
6:43 PM 51.8 °F 48.2 °F 88% 30.05 in 4.0 mi NE 8.1 mph - N/A Rain Rain
6:53 PM 51.8 °F 48.2 °F 88% 30.04 in 4.0 mi NE 10.4 mph - N/A Rain Rain
6:58 PM 51.8 °F 47.5 °F 85% 30.03 in 5.0 mi NE 10.4 mph - 0.09 in Rain Light Rain
7:18 PM 51.8 °F 48.2 °F 88% 30.05 in 9.0 mi ENE 8.1 mph - N/A Rain Light Rain
7:23 PM 51.8 °F 48.2 °F 88% 30.05 in 9.0 mi NE 6.9 mph - N/A Rain Light Rain
7:58 PM 52.0 °F 47.8 °F 86% 30.05 in 7.0 mi NE 9.2 mph - 0.02 in Rain Light Rain
8:28 PM 51.8 °F 48.2 °F 88% 30.06 in 9.0 mi NE 8.1 mph - N/A Rain Light Rain
8:33 PM 51.8 °F 48.2 °F 88% 30.06 in 8.0 mi Variable 6.9 mph - N/A Rain Light Rain
8:43 PM 51.8 °F 48.2 °F 88% 30.05 in 5.0 mi NE 6.9 mph - N/A Rain Light Rain
8:58 PM 52.0 °F 47.8 °F 86% 30.05 in 4.0 mi ENE 9.2 mph - 0.02 in Rain Light Rain
9:38 PM 51.8 °F 48.2 °F 88% 30.04 in 3.0 mi ENE 13.8 mph - N/A Rain Rain
9:58 PM 51.3 °F 46.9 °F 85% 30.03 in 4.0 mi ENE 16.1 mph 21.9 mph 0.09 in Rain Rain
10:38 PM 50.0 °F 44.6 °F 82% 30.01 in 10.0 mi ENE 13.8 mph 21.9 mph N/A   Overcast
10:46 PM 50.0 °F 44.6 °F 82% 30.00 in 10.0 mi ENE 15.0 mph 21.9 mph N/A   Light Drizzle
10:58 PM 49.5 °F 45.1 °F 85% 30.01 in 8.0 mi East 12.7 mph - 0.03 in Rain Light Rain
11:43 PM 48.2 °F 44.6 °F 87% 30.00 in 6.0 mi ENE 10.4 mph - N/A Rain Rain
11:48 PM 48.2 °F 44.6 °F 87% 29.99 in 3.0 mi ENE 10.4 mph - N/A Rain Heavy Rain
11:53 PM 48.2 °F 44.6 °F 87% 29.99 in 2.0 mi ENE 12.7 mph - N/A Rain Heavy Rain
11:58 PM 48.7 °F 44.4 °F 85% 29.99 in 2.5 mi ENE 13.8 mph - 0.10 in Rain Rain